Weather History for KBOK - July, 2013

Change the Weather History Date:

Friday, July 5, 2013

  Actual Average Record
Temperature  
Mean Temperature 64 °F -  
Max Temperature 75 °F 67 °F 84 °F (1993)
Min Temperature 54 °F 51 °F 42 °F (1932)
Growing Degree Days 14 (Base 50)    
Moisture  
Dew Point 53 °F    
Average Humidity 61    
Maximum Humidity 93    
Minimum Humidity 41    
Precipitation  
Precipitation 0.00 in - - ()
Sea Level Pressure  
Sea Level Pressure 29.85 in    
Wind  
Wind Speed 8 mph (NNW)    
Max Wind Speed 20 mph    
Max Gust Speed 24 mph    
Visibility 10 miles    
Events      
Averages and records for this station are not official NWS values.
T = Trace of Precipitation, MM = Missing Value Source: NWS Daily Summary

Daily Weather History Graph

Daily Weather History Graph

Search for Another Location

Airport or City:

Trip Planner

Search our weather history database for the weather conditions in past years. The results will help you decide how hot, cold, wet, or windy it might be!

Date:

Astronomy

Jul. 05, 2013 Rise Set
Actual Time 5:47 AM PDT 8:55 PM PDT
Civil Twilight 5:13 AM PDT 9:29 PM PDT
Nautical Twilight 4:29 AM PDT 10:13 PM PDT
Astronomical Twilight 3:37 AM PDT 11:05 PM PDT
Moon 3:52 AM PDT (7/5) 6:54 PM PDT (7/5)
Length of Visible Light 16h 16m
Length of Day
15h 08m
Waning Crescent, 6% of the Moon is Illuminated
Jul 5
Waning Crescent
Jul 8
New
Jul 15
First Quarter
Jul 22
Full
Jul 29
Last Quarter

Hourly Weather History & Observations

Time (PDT) Temp. Dew Point Humidity Pressure Visibility Wind Dir Wind Speed Gust Speed Precip Events Conditions
12:56 AM 54.9 °F 52.9 °F 93% 29.93 in 5.0 mi Calm Calm - N/A   Clear
1:56 AM 54.9 °F 52.9 °F 93% 29.91 in 7.0 mi Variable 3.5 mph - N/A   Clear
2:56 AM 59.9 °F 52.0 °F 75% 29.90 in 10.0 mi NNW 9.2 mph - N/A   Clear
3:56 AM 59.9 °F 52.9 °F 78% 29.89 in 10.0 mi NNW 11.5 mph - N/A   Clear
4:56 AM 63.0 °F 50.9 °F 65% 29.89 in 10.0 mi North 9.2 mph - N/A   Clear
5:56 AM 63.9 °F 52.0 °F 65% 29.89 in 10.0 mi NW 6.9 mph 16.1 mph N/A   Clear
6:56 AM 63.0 °F 52.0 °F 67% 29.90 in 10.0 mi NNW 9.2 mph 17.3 mph N/A   Clear
7:56 AM 64.9 °F 52.0 °F 63% 29.90 in 10.0 mi NW 6.9 mph - N/A   Clear
8:56 AM 68.0 °F 50.9 °F 54% 29.90 in 10.0 mi North 10.4 mph 16.1 mph N/A   Clear
9:56 AM 73.9 °F 48.9 °F 41% 29.88 in 10.0 mi NNW 9.2 mph 18.4 mph N/A   Clear
10:56 AM 72.0 °F 52.0 °F 49% 29.87 in 10.0 mi NNW 11.5 mph - N/A   Clear
11:56 AM 72.9 °F 52.9 °F 49% 29.86 in 10.0 mi NW 11.5 mph - N/A   Clear
12:56 PM 73.9 °F 52.9 °F 48% 29.86 in 10.0 mi NNW 11.5 mph - N/A   Clear
1:56 PM 74.8 °F 54.0 °F 48% 29.84 in 10.0 mi NNW 19.6 mph 23.0 mph N/A   Clear
2:56 PM 74.8 °F 54.9 °F 50% 29.83 in 10.0 mi NNW 15.0 mph 21.9 mph N/A   Clear
3:56 PM 75.9 °F 55.9 °F 50% 29.81 in 10.0 mi NNW 13.8 mph 21.9 mph N/A   Clear
4:56 PM 75.9 °F 55.9 °F 50% 29.79 in 10.0 mi NNW 17.3 mph 24.2 mph N/A   Clear
5:56 PM 73.9 °F 54.9 °F 51% 29.78 in 10.0 mi NNW 17.3 mph - N/A   Clear
6:56 PM 70.9 °F 54.9 °F 57% 29.78 in 10.0 mi NNW 16.1 mph - N/A   Clear
7:56 PM 68.9 °F 54.9 °F 61% 29.78 in 10.0 mi NW 11.5 mph - N/A   Clear
8:56 PM 64.9 °F 54.0 °F 68% 29.78 in 10.0 mi NW 11.5 mph - N/A   Clear
9:56 PM 63.0 °F 52.9 °F 70% 29.80 in 10.0 mi NW 5.8 mph - N/A   Clear
10:56 PM 63.0 °F 52.0 °F 67% 29.81 in 10.0 mi Variable 5.8 mph - N/A   Clear
11:56 PM 70.0 °F 50.9 °F 51% 29.81 in 10.0 mi Variable 6.9 mph - N/A   Clear